This demonstration page uses our WeatherBlox Daily Observations layout. Learn more.

Left ArrowRight Arrow

Hourly Observations for June 9, 2019

Temp ( °F °C ) Dew Point ( °F °C ) Humidity (%) Winds ( mph kmh ) Pressure ( in mb ) Visibility ( mi km ) Precip ( " mm )
12:53 am 00:53 Clear 46 7.8 38 3.3 73 73 SW 16 26 30.23 1024 10 16 0.00 0.00
1:53 am 01:53 Partly Cloudy 46 7.8 37 2.8 71 71 SW 14 22 30.24 1024 10 16 0.00 0.00
2:53 am 02:53 Clear 45 7.2 37 2.8 74 74 SW 17 28 30.24 1024 10 16 0.00 0.00
3:53 am 03:53 Mostly Clear 45 7.2 37 2.8 74 74 SSW 15 24 30.25 1024 10 16 0.00 0.00
4:53 am 04:53 Clear 43 6.1 37 2.8 80 80 SW 13 20 30.27 1025 10 16 0.00 0.00
5:53 am 05:53 Sunny 43 6.1 37 2.8 80 80 SW 17 28 30.29 1026 10 16 0.00 0.00
6:53 am 06:53 Mostly Sunny 45 7.2 37 2.8 74 74 SW 14 22 30.32 1027 10 16 0.00 0.00
7:53 am 07:53 Sunny 49 9.4 38 3.3 66 66 WSW 13 20 30.32 1027 10 16 0.00 0.00
8:53 am 08:53 Sunny 53 11.7 40 4.4 61 61 SW 14 22 30.32 1027 10 16 0.00 0.00
9:53 am 09:53 Sunny 59 15 39 3.9 48 48 WSW 13 20 30.32 1027 10 16 0.00 0.00
10:53 am 10:53 Mostly Cloudy 62 16.7 37 2.8 40 40 W 14 22 30.29 1026 10 16 0.00 0.00
11:53 am 11:53 Mostly Cloudy 63 17.2 33 0.6 33 33 W 17 28 30.28 1026 10 16 0.00 0.00
12:53 pm 12:53 Cloudy 63 17.2 35 1.7 35 35 WNW 12 19 30.28 1025 10 16 0.00 0.00
1:53 pm 13:53 Cloudy 69 20.6 33 0.6 26 26 W 21 33 30.26 1025 10 16 0.00 0.00
2:53 pm 14:53 Partly Cloudy 72 22.2 31 -0.6 22 22 WNW 16 26 30.24 1024 10 16 0.00 0.00
3:53 pm 15:53 Mostly Cloudy with Light Rain 71 21.7 30 -1.1 22 22 W 18 30 30.23 1024 10 16 0.00 0.03
4:53 pm 16:53 Mostly Cloudy with Light Rain 67 19.4 32 0 27 27 NNW 16 26 30.25 1024 10 16 0.00 0.03
5:53 pm 17:53 Mostly Cloudy 65 18.3 33 0.6 31 31 SW 8 13 30.24 1024 10 16 0.00 0.03
6:53 pm 18:53 Mostly Cloudy 68 20 32 0 26 26 N 14 22 30.23 1024 10 16 0.00 0.03
7:00 pm 19:00 Partly Cloudy 67 19.4 34 1.1 30 30 N 14 22 30.14 1021 10 16 0.00 0.00
7:53 pm 19:53 Partly Cloudy 64 17.8 32 0 30 30 S 3 6 30.24 1024 10 16 0.00 0.03
8:53 pm 20:53 Partly Cloudy 58 14.4 44 6.7 60 60 SW 7 11 30.24 1024 10 16 0.00 0.00
9:53 pm 21:53 Clear 52 11.1 40 4.4 64 64 Calm 30.25 1024 10 16 0.00 0.00
10:53 pm 22:53 Mostly Cloudy 53 11.7 40 4.4 61 61 SSW 6 9 30.25 1025 10 16 0.00 0.00
11:53 pm 23:53 Mostly Cloudy 51 10.6 39 3.9 64 64 Calm 30.26 1025 10 16 0.00 0.00

Powered by AerisWeather